[[{"header":{"parameterUnit":"m.s-1","parameterCategory":1,"la1":30.2991,"la2":30.254,"lo1":-89.0895,"lo2":-89.0444,"dy":0.0017,"dx":0.0017,"nx":28,"ny":28,"refTime":"2024-06-24T03:00:00:Z","depth":0,"parameterNumber":2,"parameterNumberName":"U-component_of_WINDS"},"data":[0,0,0,0,0,0,0,0,0,0,0,0,0,0,0,0,0,0,0,0,0,0,0,0,0,0,0,0,0,0,0,0,0,0,0,0,0,0,0,0,0,0,0,0,0,0,0,0,0,0,0,0,0,0,0,0,0,0,2.137,2.1372,0,2.1519,2.1521,2.1523,2.1512,2.151,2.1508,2.1506,2.1666,2.1672,2.1679,0,0,0,0,0,0,0,0,0,0,0,0,0,2.1083,2.1089,2.137,2.1372,2.1374,2.1519,2.1521,2.1523,2.1513,2.151,2.1507,2.1505,2.1664,2.1672,2.1679,0,0,0,0,0,0,0,0,0,0,0,0,0,2.1218,2.1091,2.137,2.1386,2.1389,2.1519,2.1521,2.1524,2.1513,2.151,2.1506,2.1503,2.1662,2.1671,2.168,2.1806,0,0,2.171,2.1714,0,0,0,0,0,0,0,0,2.121,2.1229,2.1382,2.1385,2.1388,2.1493,2.1479,2.1619,2.1514,2.1466,2.1505,2.1502,2.1612,2.1625,2.1661,2.1814,2.1821,2.171,2.1716,2.172,2.1723,0,0,0,0,0,0,0,2.1201,2.1222,2.1429,2.1384,2.1388,2.1388,2.1403,2.1505,2.1556,2.147,2.147,2.1487,2.1613,2.1652,2.1665,2.1823,2.171,2.1719,2.1724,2.1728,2.2087,2.2091,0,0,0,0,0,0,2.1187,2.1214,2.1425,2.1434,2.1289,2.1396,2.1413,2.1463,2.1555,2.1566,2.149,2.1486,2.1637,2.1654,2.167,2.1824,2.172,2.1729,2.1735,2.2084,2.2088,2.2092,0,0,0,0,0,0,2.1181,2.1206,2.1419,2.1324,2.1351,2.1404,2.1461,2.1468,2.1506,2.157,2.158,2.1519,2.1635,2.1657,2.1772,2.1829,2.1733,2.1742,2.2079,2.2085,2.209,2.2132,0,0,0,0,0,0,2.1173,2.1204,2.125,2.1325,2.1356,2.1516,2.1464,2.1473,2.1522,2.1518,2.16,2.1611,2.1634,2.1758,2.1782,2.1841,2.175,2.2074,2.2082,2.2089,2.2125,2.2138,2.2149,0,0,0,0,0,2.1163,2.1258,2.1253,2.1278,2.1415,2.1519,2.1537,2.156,2.1526,2.1575,2.1616,2.1608,2.1819,2.177,2.1796,2.1859,2.2071,2.208,2.2088,2.212,2.2136,2.2149,0,0,0,0,0,0,2.1191,2.1268,2.1263,2.1385,2.1445,2.1517,2.1578,2.1576,2.1649,2.1643,2.1671,2.1689,2.1805,2.1844,2.1787,2.1986,2.1941,2.1955,2.1956,2.1972,2.1983,2.1971,2.1757,0,0,0,0,0,2.1211,2.1286,2.135,2.1452,2.1482,2.1525,2.1571,2.1583,2.1648,2.1674,2.1724,2.1789,2.187,2.1923,2.2001,2.2131,2.2149,2.2188,2.2199,2.2209,2.2221,2.2293,2.2311,2.2121,2.2121,2.212,0,0,2.1254,2.1305,2.1351,2.1459,2.1507,2.1586,2.1547,2.1633,2.1693,2.1689,2.1799,2.1838,2.1913,2.2036,2.2093,2.2072,2.2277,2.222,2.2226,2.2234,2.2304,2.2321,2.2337,2.2126,2.2125,2.2125,0,0,2.1372,2.1418,2.1507,2.1556,2.1629,2.1657,2.1678,2.1751,2.1775,2.1886,2.1885,2.1958,2.2097,2.215,2.2196,2.2334,2.233,2.236,2.2421,2.2491,2.2506,2.2519,2.2569,2.2586,2.2371,2.2372,2.2372,0,2.1417,2.1534,2.1554,2.1641,2.1689,2.1686,2.1778,2.1825,2.192,2.1955,2.1929,2.2103,2.2153,2.2289,2.2322,2.2359,2.2386,2.235,2.2501,2.2515,2.2528,2.2576,2.2595,2.2375,2.2374,2.2374,2.2374,0,2.1586,2.1668,2.1732,2.1821,2.1876,2.1965,2.2001,2.2055,2.2063,2.2094,2.2208,2.2268,2.2358,2.2391,2.2401,2.2529,2.2514,2.2495,2.245,2.2549,2.2594,2.2613,2.2379,2.2378,2.2377,2.2376,0,0,2.1726,2.1825,2.1848,2.1889,2.1969,2.2034,2.2123,2.2209,2.2255,2.2321,2.2398,2.2515,2.2498,2.255,2.2566,2.2627,2.2733,2.2601,2.2603,2.2623,2.2878,2.2892,2.2912,2.2731,2.2734,2.2737,2.2872,0,2.1853,2.2008,2.2029,2.2168,2.2245,2.2243,2.2322,2.2381,2.2412,2.2484,2.2521,2.2603,2.2574,2.2605,2.2665,2.2707,2.2785,2.2698,2.2804,2.2808,2.2785,2.2936,2.2951,2.3075,2.289,2.2893,2.2895,0,2.2021,2.2089,2.2235,2.2304,2.2337,2.2407,2.2487,2.2555,2.2622,2.2642,2.2698,2.2707,2.2802,2.2752,2.2885,2.2825,2.287,2.2897,2.2903,2.2913,2.2857,2.2951,2.3115,2.3133,2.2923,2.2921,2.2919,0,2.2108,2.2237,2.2341,2.2376,2.246,2.2509,2.2546,2.261,2.266,2.2732,2.2765,2.2847,2.2892,2.2957,2.2988,2.2949,2.3118,2.3072,2.3138,2.3137,2.3174,2.3171,2.3347,2.3203,2.3203,2.3202,2.3202,0,2.2247,2.2337,2.2381,2.2445,2.2546,2.257,2.267,2.2706,2.2763,2.2836,2.2841,2.2909,2.2946,2.302,2.3046,2.3151,2.3172,2.3191,2.3197,2.3191,2.3188,2.322,2.3212,2.3207,2.3206,2.3205,2.3204,0,2.2362,2.2395,2.2508,2.2578,2.2597,2.2669,2.2729,2.2792,2.2824,2.2915,2.2938,2.2989,2.3077,2.3113,2.3223,2.3239,2.3361,2.336,2.3337,2.3339,2.3403,2.3396,2.3605,2.3634,2.3472,2.3473,2.3474,0,2.2448,2.2516,2.2593,2.264,2.2679,2.2756,2.2807,2.2834,2.2887,2.2969,2.3023,2.311,2.3181,2.3322,2.337,2.3453,2.3455,2.3522,2.3468,2.3459,2.3456,2.3451,2.3458,2.3532,2.3534,2.3535,2.3537,0,2.2597,2.261,2.2682,2.276,2.2819,2.2883,2.2944,2.2984,2.3021,2.3081,2.3169,2.3225,2.3335,2.3422,2.3508,2.3549,2.355,2.3553,2.3573,2.3567,2.3551,2.356,2.3364,2.3548,2.3547,2.3546,2.3546,2.3545,2.2701,2.2761,2.2824,2.2904,2.2953,2.301,2.3073,2.3111,2.3185,2.3274,2.3287,2.3382,2.3449,2.3564,2.3609,2.3685,2.3668,2.3697,2.3704,2.3711,2.3715,2.3539,2.3701,2.3701,2.3701,2.3701,2.37,0,2.285,2.289,2.2963,2.3048,2.3112,2.3104,2.3172,2.3226,2.3309,2.337,2.3439,2.3542,2.3626,2.368,2.3766,2.3817,2.3819,2.3838,2.3835,2.3844,2.3725,2.3699,2.3835,2.3835,2.3835,2.3835,2.3835,2.3835,2.2935,2.3037,2.3057,2.3184,2.3225,2.3316,2.3355,2.3409,2.3458,2.3571,2.364,2.3674,2.3733,2.3823,2.3901,2.3915,2.3946,2.3966,2.3979,2.3867,2.3853,2.3839,2.3815,2.3973,2.3973,2.4092,2.4093,2.4094]},{"header":{"parameterUnit":"m.s-1","parameterCategory":1,"la1":30.2991,"la2":30.254,"lo1":-89.0895,"lo2":-89.0444,"dy":0.0017,"dx":0.0017,"nx":28,"ny":28,"refTime":"2024-06-24T03:00:00:Z","depth":0,"parameterNumber":3,"parameterNumberName":"V-component_of_WINDS"},"data":[0,0,0,0,0,0,0,0,0,0,0,0,0,0,0,0,0,0,0,0,0,0,0,0,0,0,0,0,0,0,0,0,0,0,0,0,0,0,0,0,0,0,0,0,0,0,0,0,0,0,0,0,0,0,0,0,0,0,3.287,3.287,0,3.2899,3.2899,3.29,3.2908,3.2908,3.2908,3.2908,3.2934,3.2935,3.2936,0,0,0,0,0,0,0,0,0,0,0,0,0,3.2817,3.2818,3.287,3.287,3.2871,3.2899,3.2899,3.29,3.2908,3.2908,3.2908,3.2908,3.2934,3.2935,3.2936,0,0,0,0,0,0,0,0,0,0,0,0,0,3.2842,3.2818,3.287,3.2879,3.288,3.2899,3.2899,3.29,3.2908,3.2908,3.2908,3.2908,3.2934,3.2935,3.2936,3.2948,0,0,3.294,3.294,0,0,0,0,0,0,0,0,3.2841,3.2844,3.2877,3.2878,3.2879,3.29,3.289,3.2916,3.2908,3.2897,3.2908,3.2908,3.2923,3.2925,3.2931,3.2949,3.295,3.294,3.2941,3.2941,3.2942,0,0,0,0,0,0,0,3.2839,3.2843,3.2881,3.2877,3.2879,3.2879,3.2883,3.2895,3.2911,3.2898,3.2899,3.2903,3.2923,3.2929,3.2931,3.295,3.294,3.2941,3.2942,3.2942,3.2976,3.2976,0,0,0,0,0,0,3.2836,3.2841,3.288,3.2882,3.2859,3.288,3.2884,3.2893,3.2911,3.2913,3.2903,3.2903,3.2927,3.293,3.2932,3.2945,3.2941,3.2942,3.2943,3.2976,3.2976,3.2976,0,0,0,0,0,0,3.2835,3.284,3.2879,3.2862,3.2867,3.2881,3.2892,3.2894,3.29,3.2914,3.2916,3.2906,3.2927,3.293,3.2943,3.2946,3.2943,3.2944,3.2976,3.2976,3.2976,3.2972,0,0,0,0,0,0,3.2834,3.2839,3.2846,3.2862,3.2868,3.2891,3.2892,3.2895,3.2903,3.2903,3.2918,3.292,3.2927,3.2941,3.2944,3.2948,3.2945,3.2975,3.2976,3.2976,3.2972,3.2972,3.2972,0,0,0,0,0,3.2832,3.2843,3.2846,3.2851,3.2876,3.2892,3.2895,3.2904,3.2903,3.2908,3.2916,3.292,3.2945,3.2943,3.2946,3.295,3.2975,3.2976,3.2976,3.2972,3.2972,3.2972,0,0,0,0,0,0,3.2826,3.2846,3.2849,3.2866,3.2877,3.2893,3.29,3.2904,3.2915,3.2915,3.2924,3.2927,3.2939,3.2946,3.2942,3.296,3.296,3.2961,3.2956,3.2956,3.2956,3.2954,3.2946,0,0,0,0,0,3.2827,3.284,3.2855,3.2869,3.2874,3.2886,3.2893,3.2899,3.291,3.2915,3.2924,3.2934,3.2944,3.295,3.296,3.2973,3.2975,3.2977,3.2977,3.2977,3.2977,3.2982,3.2982,3.2977,3.2977,3.2977,0,0,3.2829,3.2841,3.2848,3.2868,3.2877,3.2888,3.289,3.2902,3.2909,3.2916,3.2929,3.2936,3.2947,3.2959,3.2964,3.2965,3.2979,3.2977,3.2977,3.2978,3.2982,3.2983,3.2983,3.2978,3.2978,3.2978,0,0,3.2838,3.2849,3.286,3.2869,3.2883,3.289,3.2893,3.2908,3.2912,3.2925,3.293,3.2938,3.2955,3.2963,3.2968,3.2976,3.2979,3.2979,3.298,3.2984,3.2984,3.2985,3.2986,3.2986,3.298,3.298,3.298,0,3.2838,3.2856,3.2865,3.2876,3.2884,3.289,3.2901,3.2908,3.2924,3.2928,3.2928,3.2949,3.2957,3.297,3.2971,3.2976,3.2978,3.2978,3.2984,3.2984,3.2985,3.2986,3.2986,3.2979,3.298,3.298,3.298,0,3.2854,3.2866,3.2873,3.2889,3.2897,3.2907,3.2916,3.2923,3.2927,3.2934,3.2945,3.2954,3.2966,3.2969,3.2973,3.2981,3.2981,3.2982,3.2982,3.2985,3.2986,3.2987,3.2979,3.2979,3.2979,3.2979,0,0,3.2862,3.2881,3.2883,3.2889,3.2903,3.2912,3.2921,3.2932,3.2937,3.2947,3.2954,3.2967,3.2968,3.2974,3.2979,3.2983,3.2986,3.2983,3.2984,3.2983,3.2993,3.2991,3.2992,3.2988,3.2988,3.2988,3.2992,0,3.2871,3.289,3.2897,3.2912,3.2921,3.2926,3.2934,3.2942,3.2948,3.2955,3.2961,3.297,3.2971,3.2975,3.2979,3.2985,3.2988,3.2985,3.2993,3.2993,3.2989,3.2993,3.2992,3.2995,3.2992,3.2992,3.2993,0,3.2886,3.2895,3.2911,3.2921,3.2925,3.2933,3.2942,3.295,3.2958,3.2962,3.2968,3.2972,3.298,3.2979,3.2989,3.2986,3.2989,3.2992,3.2993,3.2994,3.2993,3.2993,3.2996,3.2997,3.2994,3.2994,3.2993,0,3.2887,3.2904,3.2915,3.292,3.2933,3.2938,3.2943,3.2951,3.2957,3.2964,3.2967,3.2976,3.298,3.2986,3.2991,3.299,3.2999,3.3,3.3001,3.3001,3.3003,3.3003,3.3006,3.3006,3.3006,3.3006,3.3006,0,3.2897,3.2906,3.2916,3.2922,3.2931,3.2938,3.2946,3.2952,3.2959,3.2965,3.297,3.2975,3.2982,3.2988,3.2992,3.2998,3.3,3.3002,3.3003,3.3002,3.3001,3.3004,3.3003,3.3006,3.3006,3.3006,3.3006,0,3.2901,3.2909,3.292,3.2931,3.2933,3.2939,3.2948,3.2953,3.2958,3.2966,3.2968,3.2975,3.2982,3.2988,3.2997,3.2999,3.3006,3.3007,3.3003,3.3003,3.3004,3.3004,3.3009,3.301,3.301,3.301,3.301,0,3.2906,3.2913,3.2924,3.2928,3.2934,3.2941,3.2947,3.2953,3.2958,3.2966,3.297,3.2977,3.2983,3.2994,3.2999,3.3005,3.3006,3.3008,3.3007,3.3005,3.3005,3.3005,3.3004,3.3008,3.3008,3.3008,3.3008,0,3.2914,3.2917,3.2925,3.2933,3.2939,3.2946,3.2952,3.2956,3.2963,3.2968,3.2975,3.2979,3.2988,3.2994,3.3001,3.3004,3.3007,3.3008,3.3008,3.3007,3.3004,3.3004,3.3002,3.3008,3.3008,3.3008,3.3008,3.3008,3.2918,3.2923,3.2931,3.2939,3.2944,3.295,3.2955,3.296,3.2966,3.2974,3.2977,3.2984,3.2989,3.2998,3.3002,3.3006,3.3007,3.3008,3.3008,3.3008,3.3007,3.3003,3.3008,3.3008,3.3008,3.3008,3.3008,0,3.2925,3.293,3.2937,3.2946,3.2951,3.2953,3.296,3.2964,3.297,3.2975,3.2981,3.2988,3.2993,3.2999,3.3004,3.3006,3.3007,3.3008,3.3007,3.3008,3.3007,3.3006,3.3007,3.3007,3.3007,3.3007,3.3007,3.3007,3.2929,3.2937,3.2941,3.295,3.2955,3.2962,3.2965,3.297,3.2974,3.2982,3.2986,3.299,3.2995,3.3,3.3005,3.3006,3.3007,3.3007,3.3009,3.3008,3.3008,3.3008,3.3007,3.3008,3.3008,3.3009,3.3009,3.3009]}]]